Hourly Data Report for November 06, 2020

VANCOUVER INTL A
BRITISH COLUMBIA
Current Station Operator: NAVCAN

49°11'41.000" N
123°11'02.000" W
4.30 m
1108395
71892
YVR

Download Data

Hourly Data (November 2020)
Hourly Data Report for November 6, 2020
TIME
LST
Temp Definition
°C
Dew Point Definition
°C
Rel Hum Definition
%
Precip. Amount Definition
mm

Wind Dir Definition
10's deg

Wind Spd Definition
km/h
Visibility Definition
km
Stn Press Definition
kPa
Hmdx Definition


Wind Chill Definition


Weather Definition


00:00 6.1 4.0 86   36 10 32.2 101.33     LegendNANA
01:00 5.5 2.5 81   34 13 32.2 101.39     Cloudy
02:00 6.5 2.6 76   33 27 32.2 101.34     LegendNANA
03:00 6.9 3.6 79   31 26 32.2 101.33     LegendNANA
04:00 6.7 4.5 85   30 29 32.2 101.31     Cloudy
05:00 6.7 4.3 84   30 35 32.2 101.33     LegendNANA
06:00 6.5 4.5 87   30 40 32.2 101.35     LegendNANA
07:00 6.1 3.8 85   30 37 32.2 101.34     Mainly Clear
08:00 6.7 4.2 84   29 40 32.2 101.38     LegendNANA
09:00 7.4 4.6 83   29 40 32.2 101.38     LegendNANA
10:00 8.0 4.3 77   29 36 32.2 101.33     Clear
11:00 8.4 4.5 76   29 36 32.2 101.29     LegendNANA
12:00 8.6 4.3 74   29 40 32.2 101.24     LegendNANA
13:00 8.6 4.1 73   29 40 32.2 101.20     Clear
14:00 8.7 4.1 73   29 40 32.2 101.12     LegendNANA
15:00 8.5 3.7 72   28 34 32.2 101.07     LegendNANA
16:00 7.9 3.0 71   29 35 32.2 101.06     Clear
17:00 7.6 3.5 75   29 34 32.2 101.11     LegendNANA
18:00 7.5 3.6 77   29 30 32.2 101.09     LegendNANA
19:00 7.2 4.0 80   30 25 32.2 101.06     Mainly Clear
20:00 7.2 3.9 80   30 32 32.2 101.06     LegendNANA
21:00 6.8 3.2 78   30 33 32.2 101.02     LegendNANA
22:00 6.4 3.4 81   30 31 32.2 101.02     Clear
23:00 5.9 3.0 81   29 28 32.2 101.00     LegendNANA

Notes on Data Quality.

Legend

  • E = Estimated
  • M = Missing
  • NA = Not Available*
  • [empty] = Indicates an unobserved value
Date modified: